QFA215 NZWN-YSSY

Flight info

Callsign QFA215
Flight time N/A
Altitude 36000
Route TANEN M636 PLUGA DCT RIKNI DCT MARLN
Aircraft A21N/M-SDE3FGHIRWY/LB1

Departure

Time N/A
Airport Wellington International Airport (NZWN)

Arrival

Time 2026-04-25 14:10
Airport Sydney Kingsford Smith International Airport (YSSY)
Time Latitude Longitude Altitude Speed Heading
2026-04-25 14:02 -34.13949 151.54727 7578 ft 290 kts 263°
2026-04-25 14:02 -34.14201 151.52335 7228 ft 287 kts 263°
2026-04-25 14:02 -34.14366 151.50761 6991 ft 286 kts 263°
2026-04-25 14:03 -34.14696 151.47613 6533 ft 283 kts 263°
2026-04-25 14:03 -34.14944 151.45252 6196 ft 281 kts 263°
2026-04-25 14:03 -34.15190 151.42909 5853 ft 279 kts 263°
2026-04-25 14:03 -34.15431 151.40617 5498 ft 277 kts 263°
2026-04-25 14:04 -34.15674 151.38280 5067 ft 278 kts 264°
2026-04-25 14:04 -34.15916 151.35959 4618 ft 280 kts 264°
2026-04-25 14:04 -34.16159 151.33611 4191 ft 281 kts 265°
2026-04-25 14:04 -34.16401 151.31276 3815 ft 279 kts 265°
2026-04-25 14:05 -34.16640 151.28957 3468 ft 276 kts 265°
2026-04-25 14:05 -34.16874 151.26675 3133 ft 273 kts 266°
2026-04-25 14:05 -34.16778 151.24432 2930 ft 257 kts 294°
2026-04-25 14:05 -34.15758 151.22850 2922 ft 229 kts 332°
2026-04-25 14:06 -34.14343 151.22350 2946 ft 217 kts 355°
2026-04-25 14:06 -34.12838 151.22166 2947 ft 217 kts 355°
2026-04-25 14:06 -34.11328 151.21905 2914 ft 218 kts 352°
2026-04-25 14:06 -34.09846 151.21561 2678 ft 218 kts 350°
2026-04-25 14:07 -34.08377 151.21179 2384 ft 209 kts 349°
2026-04-25 14:07 -34.06990 151.20810 2113 ft 197 kts 350°
2026-04-25 14:07 -34.05710 151.20473 1934 ft 181 kts 350°
2026-04-25 14:07 -34.04505 151.20158 1692 ft 169 kts 350°
2026-04-25 14:08 -34.03384 151.19867 1431 ft 158 kts 350°
2026-04-25 14:08 -34.02353 151.19598 1200 ft 144 kts 350°
2026-04-25 14:08 -34.01414 151.19354 993 ft 134 kts 350°
2026-04-25 14:08 -34.00503 151.19124 839 ft 133 kts 349°
2026-04-25 14:09 -33.99593 151.18890 675 ft 132 kts 347°
2026-04-25 14:09 -33.98692 151.18654 503 ft 132 kts 347°
2026-04-25 14:09 -33.97784 151.18420 325 ft 132 kts 347°
2026-04-25 14:09 -33.97188 151.18271 209 ft 132 kts 347°
2026-04-25 14:10 -33.95981 151.17949 37 ft 130 kts 346°
2026-04-25 14:10 -33.95204 151.17743 29 ft 91 kts 348°
2026-04-25 14:10 -33.94750 151.17622 29 ft 42 kts 349°
2026-04-25 14:10 -33.94573 151.17564 28 ft 22 kts 339°
2026-04-25 14:11 -33.94442 151.17473 28 ft 20 kts 325°
2026-04-25 14:11 -33.94371 151.17406 28 ft 0 kts 318°
2026-04-25 14:12 -33.94360 151.17394 29 ft 6 kts 318°
2026-04-25 14:12 -33.94301 151.17329 28 ft 15 kts 322°
2026-04-25 14:12 -33.94196 151.17282 29 ft 16 kts 348°
2026-04-25 14:13 -33.94087 151.17253 28 ft 16 kts 347°
2026-04-25 14:13 -33.93979 151.17219 28 ft 11 kts 326°
2026-04-25 14:13 -33.93986 151.17175 29 ft 3 kts 237°
2026-04-25 14:13 -33.93999 151.17131 28 ft 9 kts 256°
2026-04-25 14:14 -33.94035 151.16954 28 ft 25 kts 255°
2026-04-25 14:14 -33.94060 151.16846 29 ft 11 kts 252°
2026-04-25 14:14 -33.94084 151.16748 28 ft 12 kts 255°
2026-04-25 14:14 -33.94098 151.16655 28 ft 10 kts 289°
2026-04-25 14:15 -33.94031 151.16621 28 ft 9 kts 344°
2026-04-25 14:15 -33.94011 151.16615 28 ft 1 kts 344°
2026-04-25 14:15 -33.94011 151.16614 28 ft 0 kts 344°